Regional Weather Roundup
Issued by NWS Wakefield, VA

Home | Current Version | Previous Version | Graphics & Text | Print | Product List | Glossary On
Versions: 1 2 3 4 5 6 7 8 9 10 11 12 13 14 15 16 17 18 19 20 21 22 23 24 25 26 27 28 29 30 31 32 33 34 35 36 37 38 39 40 41 42 43 44 45 46 47 48 49 50
000
ASUS41 KAKQ 070015
RWRAKQ

REGIONAL WEATHER ROUNDUP
NATIONAL WEATHER SERVICE WAKEFIELD VA
800 PM EDT MON JUL 06 2015

Note: "fair" indicates few or no clouds below 12,000 feet with no
significant weather and/or obstructions to visibility. * = Denotes
station may not report precipitation (e.g., rain,snow,etc.),
thunder or fog.

VAZ042-051-052>054-056-070100-
NORTHERN VIRGINIA

CITY           SKY/WX    TMP DP  RH WIND       PRES   REMARKS
WASH NATIONAL  MOCLDY    81  74  79 S7        30.02S
DULLES         MOCLDY    77  74  90 S5        30.01F
FORT BELVOIR   MOCLDY    80  74  80 SE6       30.01F
QUANTICO       NOT AVBL
FREDERICKSBRG* PTCLDY    78  77  98 S7        30.01F
STAFFORD*      MOCLDY    77  69  74 S5        30.05F
WARRENTON      MOCLDY    80  75  84 CALM      30.02S
CULPEPER*      PTCLDY    78  74  87 CALM      30.03S
MANASSAS*      CLEAR     81  72  74 CALM      30.02S
LEESBURG*      PTCLDY    81  73  78 S12       30.03S
WINCHESTER     PTCLDY    79  70  73 S5        30.03R
FRONT ROYAL*   MOCLDY    75  70  83 SW3       30.02R
LURAY*         FAIR      79  72  78 SW3       30.03S
$$

VAZ048-049-060>072-079>083-070100-
CENTRAL AND SOUTH CENTRAL VIRGINIA

CITY           SKY/WX    TMP DP  RH WIND       PRES   REMARKS
RICHMOND       PTCLDY    79  70  74 W3        30.04S
CHESTERFIELD*  NOT AVBL
PETERSBURG*    CLEAR     82  81  98 CALM      30.04F HX  95
HANOVER        PTCLDY    74  73  97 CALM      30.05S
TAPPAHANNOCK*  PTCLDY    75  71  85 E3        30.06R
QUINTON*       NOT AVBL
CHARLOTTSVILLE CLEAR     77  70  79 SW6       30.04R
GORDONSVILLE*  FAIR      75  72  88 SW3       30.02F
ORANGE*        CLEAR     77  72  83 CALM      30.04F
LOUISA*        CLEAR     77  72  83 S3        30.03S
BUMPASS*       FAIR      76  70  82 SE3       30.03F
FARMVILLE*     PTCLDY    77  69  76 CALM      30.04R
CREWE*         FAIR      75  74  95 CALM      30.05S
FORT PICKETT*  FAIR      79  75  86 CALM      30.05S
CHASE CITY*    FAIR      82  72  73 CALM      30.06S
CLARKSVILLE*   FAIR      73  73 100 CALM      30.05S
SOUTH HILL*    PTCLDY    79  74  84 CALM      30.11S
LAWRENCEVILLE* NOT AVBL
EMPORIA*         N/A     81  73  78 CALM      30.06F
$$

VAZ088>098-070100-
SOUTHEAST VIRGINIA

CITY           SKY/WX    TMP DP  RH WIND       PRES   REMARKS
NORFOLK        CLEAR     82  72  71 S9        30.05S
VIRGINIA BEACH MOCLDY    82  72  71 S5        30.05S
NORFOLK NAVAL  MOCLDY    81  72  74 VRB7      30.06S
WEST POINT*    PTCLDY    80  71  73 CALM      30.05F
SALUDA*        FAIR      79  73  83 W8        30.06R
NEWPORT NEWS   CLEAR     82  74  76 S12       30.05R
LANGLEY AFB    CLEAR     82  74  76 S12       30.03S
FORT EUSTIS    PTCLDY    82  82 100 S8        30.03R HX  97
WILLIAMSBURG*  PTCLDY    84  75  74 S8        30.06R
HR EXEC AP*    FAIR      81  72  74 S7        30.07F
FRANKLIN*      TSTM      78  72  83 SE6       30.05F
WAKEFIELD      PTCLDY    82  71  69 S5        30.05S
$$

VAZ020-022-025-037-045-070100-
WEST CENTRAL AND SOUTHWEST VIRGINIA

CITY           SKY/WX    TMP DP  RH WIND       PRES   REMARKS
STAUNTON*      PTCLDY    77  71  82 SW3       30.08R
WAYNESBORO*    FAIR      75  68  79 SW3       30.08R
HOT SPRINGS VA CLOUDY    67  67 100 W12       30.18R
LYNCHBURG      CLEAR     71  71 100 W3        30.08R
DANVILLE       PTCLDY    81  72  74 CALM      30.06S
SOUTH BOSTON*  FAIR      79  71  76 MISG      30.06R
MARTINSVILLE   PTCLDY    77  69  76 CALM      30.11R
ROANOKE        MOCLDY    77  66  68 W12       30.10R
BLACKSBURG     CLEAR     72  67  82 CALM      30.17S
DUBLIN*        CLEAR     75  67  77 CALM      30.16S
MARION*        MOCLDY    73  65  76 W5        30.19S
HILLSVILLE*    PTCLDY    70  63  76 NW5       30.17S
RICHLANDS*     FAIR      72  65  81 SW3       30.17F
WISE*          CLEAR     73  63  68 S3        30.17F
ABINGDON*      CLEAR     76  66  71 CALM      30.15S
$$

MDZ021>025-VAZ099-100-070100-
SOUTHERN MARYLAND AND THE DELMARVA PENINSULA

CITY           SKY/WX    TMP DP  RH WIND       PRES   REMARKS
PATUXENT RIVER TSTM      75  70  84 SW20G30   30.06R
BAY BRIDGE APT   N/A     82  72  69 SE6       30.02S
LEONARDTOWN    MOCLDY    79  72  78 SE9       30.06R
DOVER          CLOUDY    77  77 100 E12       30.04S
GEORGETOWN     CLEAR     80  74  81 S9        30.06S
EASTON         MOCLDY    84  73  70 S9        30.07S
CAMBRIDGE      CLEAR     82  70  65 S7        30.04S
SALISBURY      CLEAR     80  74  81 SE7       30.06R
OCEAN CITY     PTCLDY    78  74  87 S6        30.07S
WALLOPS ISLAND PTCLDY    77  74  90 S9        30.07S
ACCOMACK*      PTCLDY    77  73  88 S6        30.06S
$$

NCZ012>017-030>032-070100-
NORTH CENTRAL AND EASTERN NORTH CAROLINA

CITY           SKY/WX    TMP DP  RH WIND       PRES   REMARKS
ROANOKE RAPIDS FAIR      77  73  88 CALM      30.05S
RALEIGH        MOCLDY    84  68  58 S8        30.07S
ELIZABETH CITY CLEAR     82  75  79 S9        30.07F
AHOSKIE*       CLEAR     80  74  81 S3        30.06R
EDENTON*         N/A     83  74  76 S13       30.07S
CURRITUCK*     CLEAR     82  72  72 S5        30.08S
KILL DEVIL HLS CLEAR     82  73  74 S8        30.08F
MANTEO         CLEAR     81  74  79 S18       30.09F
CAPE HATTERAS  PTCLDY    79  74  84 S13       30.11F
TARBORO*         N/A     86  69  56 SW3       30.06S
GOLDSBORO      CLEAR     87  69  55 CALM      30.05R
WASHINGTON     CLEAR     82  71  67 S8        30.08R
GREENVILLE     CLEAR     84  72  65 S13       30.08S
NEW BERN       CLEAR     81  71  71 S9        30.11R
WILMINGTON     PTCLDY    81  71  71 SW9       30.11R
$$

VAZ048-070100-
ELSEWHERE

CITY           SKY/WX    TMP DP  RH WIND       PRES   REMARKS
HARRISBURG PA  LGT RAIN  77  70  79 S9        30.02F
BALTIMORE      MOCLDY    81  71  71 SE8       30.01F THUNDER
ANNAPOLIS      CLEAR     81  72  74 S9        30.02S
ANDREWS AFB    TSTM      75  71  87 S22G29    30.03R
PHILADELPHIA   MOCLDY    82  72  71 SE8       30.06S THUNDER
HENDERSON NC   MOCLDY    78  72  82 CALM      30.06F
GREENSBORO     MOCLDY    79  66  64 VRB5      30.08R
ROCKY MOUNT    CLEAR     85  69  58 S5        30.06R
$$

VAZ100-070100-
MARINE

STATION/POSITION TIME  TEMP    WIND        PRES    WAVE   SWELL
                       AIR SEA DIR/SP/G            HT/PER HT/PER
                 (UTC) (F)     (DEG/KT/KT) (MB)    (FT/S) (FT/S)
BRANDYWINE LGT   2300   76 75  140/ 13/ 15 1018.3F
CAPE MAY NJ      2300   77 78  130/ 10/ 13 1018.1F
LEWES DE         2300   78 75  160/  9/ 12 1017.7F
15NM E FENWICK I 2350   77 76              1018.3F   2/ 8
OCEAN-CITY-INLET 2300   78 77  170/  7/  9 1018.1F
WACHAPREAGUE VA  2300   81 86  200/  8/ 13 1017.9F
THOMAS POINT MD  0000   80 78  170/ 14/ 15 1017.0
GOOSES REEF MD   0000   81 80  170/ 17/ 19 1017.9R
COVE POINT MD    2300   79     190/ 17/ 20 1017.5F
SOLOMONS ISLAND  2300      81                N/A
BISHOPS HEAD MD  2300   81     160/ 14/ 16 1017.1S
PINEY POINT MD   2300          160/ 13/ 14   N/A
CAMBRIDGE MD     2300   84 80  170/  7/ 12 1017.0S
LEWISETTA VA     2300   82 83  160/ 11/ 12 1016.6S
RAPPAHANNOCK LGT 2300          180/ 15/ 16 1018.0F
STINGRAY PT      0000   81 81  170/ 16/ 17 1017.3R   2/ 3
YORK RVR RNG VA  2300   81     170/ 17/ 19 1016.5F
YORKTOWN VA      2300   83 81  170/  8/ 11 1016.9F
JAMESTOWN VA     0000   83 84  170/ 10/ 12   N/A
DOMINION TERM VA 2300   82     170/ 12/ 14 1017.2F
KIPTOPEKE VA     2300      83  160/ 10/ 12   N/A
CHES BAY BRIDGE  2300   80 79  150/ 10/ 13 1017.2F
CAPE HENRY VA    2300   78     150/  9/ 12   N/A
CHESAPEAKE LGHT  2300   79     180/ 17/ 17 1018.5F
WILLOUBY STN VA  2300   82     180/ 14/ 16 1018.3F
CAPE HENRY BUOY  2328      78                N/A     3/ 8
1ST LANDING BUOY 0000      79              1017.3F   1/ 4
CAPE CHARLES BUO 2326      78                N/A     2/ 8   2/ 8
OFFSHORE WE BUOY 2311      78                N/A     3/ 8   2/ 8
64NM E OF VA BCH 2350   78 77  180/ 12/ 14 1018.7R   3/ 9   2/ 9
DUCK PIER NC     2300   82 78  180/ 14/ 17   N/A
44100 DUCK FRF   2324      79                N/A     3/ 9
44056 DUCK FRF   2311      77                N/A     2/ 9
OREGON INLET NC  2300   81 81  180/ 15/ 17 1019.4R
HATTERAS NC      2300   81 81  180/  7/ 13 1019.5R
DIAMOND SHLS NC  2350   81 81  190/ 16/ 19 1019.6F   3/ 4   2/ 7
CAPE LOOKOUT NC  0000   80     200/ 10/ 13 1019.4S
$$



USA.gov is the U.S. government's official web portal to all federal, state and local government web resources and services.